Location: Grums
(59.3529°N, 13.1129°E)
Time: 00:29:11
(UTC+01:00)

SEEDS - Pass Details

Date: 01 December 2021
Orbit: 584 x 600 km, 97.6° (Epoch: 27 January)

Event Time Altitude Azimuth Distance (km) Brightness Sun altitude
Rises 04:48:26 0° 17° (NNE) 2,832 ? -27.3°
Reaches altitude 10° 04:50:38 10° 20° (NNE) 1,925 ? -27.0°
Enters shadow 04:53:47 47° 43° (NE) 781 ? -26.6°
